Location: Newark
(48.5156°N, 1.8989°W)
Time: 08:09:37
(UTC+00:00)

Altair - All Passes

Search period start: 22 November 2019 00:00
Search period end: 02 December 2019 00:00
Orbit: 1502 x 1682 km, 47.2° (Epoch: 21 November)

Date Brightness Start Highest point End Pass type
(mag) Time Alt. Az. Time Alt. Az. Time Alt. Az.
22 Nov - 00:44:57 10° S 00:51:52 24° SE 00:58:44 10° E visible
22 Nov - 02:46:11 10° SW 02:55:08 60° SSE 03:04:06 10° ENE visible
22 Nov - 04:50:17 10° W 04:59:29 84° S 05:08:50 10° E visible
22 Nov - 06:54:53 10° W 07:03:59 68° SSW 07:13:20 10° ESE daylight
22 Nov - 08:59:47 10° W 09:07:38 32° SW 09:15:42 10° SSE daylight
23 Nov - 00:20:16 10° S 00:26:52 22° SE 00:33:24 10° E visible
23 Nov - 02:21:08 10° SW 02:30:02 57° SSE 02:38:56 10° ENE visible
23 Nov - 04:25:08 10° W 04:34:19 83° S 04:43:39 10° E visible
23 Nov - 06:29:44 10° W 06:38:52 71° SSW 06:48:12 10° ESE visible
23 Nov - 08:34:33 10° WNW 08:42:35 35° SW 08:50:50 10° SSE daylight
23 Nov - 23:55:38 10° S 00:01:52 20° SE 00:08:02 10° E night (unlit)
24 Nov - 01:56:05 10° SW 02:04:56 54° SSE 02:13:46 10° ENE visible
24 Nov - 03:59:58 10° W 04:09:10 83° S 04:18:28 10° E visible
24 Nov - 06:04:35 10° W 06:13:44 73° SSW 06:23:04 10° ESE visible
24 Nov - 08:09:21 10° WNW 08:17:32 37° SW 08:25:55 10° SSE daylight
24 Nov - 23:31:04 10° SSE 23:36:51 19° SE 23:42:36 10° E night (unlit)
25 Nov - 01:31:04 10° SW 01:39:51 51° SSE 01:48:36 10° ENE visible
25 Nov - 03:34:49 10° WSW 03:44:01 82° S 03:53:17 10° E visible
25 Nov - 05:39:26 10° W 05:48:35 75° SSW 05:57:55 10° ESE visible
25 Nov - 07:44:09 10° WNW 07:52:28 39° SW 08:00:59 10° SSE daylight
25 Nov - 09:52:45 10° WSW 09:55:04 11° WSW 09:57:26 10° SW daylight
25 Nov - 23:06:34 10° SSE 23:11:52 17° SE 23:17:07 10° E night (unlit)
26 Nov - 01:06:03 10° SW 01:14:46 49° SSE 01:23:25 10° ENE visible
26 Nov - 03:09:40 10° WSW 03:18:52 80° S 03:28:07 10° E visible
26 Nov - 05:14:17 10° W 05:23:27 77° SSW 05:32:46 10° ESE visible
26 Nov - 07:18:58 10° WNW 07:27:24 42° SW 07:36:01 10° SSE daylight
26 Nov - 09:26:33 10° W 09:30:06 13° SW 09:33:41 10° SSW daylight
26 Nov - 22:42:11 10° SSE 22:46:53 15° SE 22:51:32 10° E night (unlit)
27 Nov - 00:41:03 10° SW 00:49:42 46° SE 00:58:16 10° ENE visible
27 Nov - 02:44:31 10° WSW 02:53:44 79° SSE 03:02:57 10° E visible
27 Nov - 04:49:08 10° W 04:58:19 78° SSW 05:07:36 10° ESE visible
27 Nov - 06:53:48 10° WNW 07:02:20 44° SW 07:11:02 10° SSE visible
27 Nov - 09:00:45 10° W 09:05:07 14° SW 09:09:33 10° SSW daylight
27 Nov - 22:17:57 10° SSE 22:21:54 13° SE 22:25:48 10° E night (unlit)
28 Nov - 00:16:04 10° SSW 00:24:37 43° SE 00:33:05 10° ENE visible
28 Nov - 02:19:22 10° WSW 02:28:35 78° SSE 02:37:47 10° E visible
28 Nov - 04:23:58 10° W 04:33:10 80° S 04:42:27 10° ESE visible
28 Nov - 06:28:38 10° WNW 06:37:15 47° SSW 06:46:03 10° SE visible
28 Nov - 08:35:07 10° W 08:40:08 16° SW 08:45:13 10° SSW daylight
28 Nov - 21:54:00 10° SE 21:56:56 12° ESE 21:59:50 10° ESE night (unlit)
28 Nov - 23:51:07 10° SSW 23:59:34 41° SE 00:07:53 10° ENE night (unlit)
29 Nov - 01:54:14 10° WSW 02:03:26 76° SSE 02:12:37 10° E visible
29 Nov - 03:58:50 10° W 04:08:01 81° S 04:17:17 10° ESE visible
29 Nov - 06:03:28 10° WNW 06:12:10 50° SSW 06:21:02 10° SE visible
29 Nov - 08:09:35 10° W 08:15:08 18° SW 08:20:47 10° SSW daylight
29 Nov - 21:30:56 10° SE 21:31:57 10° ESE 21:32:59 10° ESE night (unlit)
29 Nov - 23:26:10 10° SSW 23:34:30 38° SE 23:42:41 10° ENE night (unlit)
30 Nov - 01:29:06 10° WSW 01:38:19 74° SSE 01:47:27 10° E visible
30 Nov - 03:33:40 10° W 03:42:52 82° S 03:52:07 10° ESE visible
30 Nov - 05:38:18 10° WNW 05:47:04 53° SSW 05:56:00 10° SE visible
30 Nov - 07:44:08 10° W 07:50:08 20° SW 07:56:14 10° S daylight
30 Nov - 23:01:15 10° SSW 23:09:27 36° SE 23:17:29 10° ENE night (unlit)
01 Dec - 01:03:58 10° WSW 01:13:11 72° SSE 01:22:18 10° E visible
01 Dec - 03:08:30 10° W 03:17:43 83° S 03:26:58 10° E visible
01 Dec - 05:13:08 10° WNW 05:21:59 55° SSW 05:30:56 10° SE visible
01 Dec - 07:18:45 10° W 07:25:08 21° SW 07:31:37 10° S daylight
01 Dec - 22:36:22 10° SSW 22:44:24 33° SE 22:52:17 10° E night (unlit)
